AirNav   ATP
 
 914 users online  

8GA8 Falcons Aerie Airport
Carrollton, Georgia, USA

GOING TO CARROLLTON?


FAA INFORMATION EFFECTIVE 04 JANUARY 2018

Location

FAA Identifier: 8GA8
Lat/Long: 33-34-38.3980N / 085-00-10.7930W
33-34.639967N / 085-00.179883W
33.5773328 / -85.0029981
(estimated)
Elevation: 1180 ft. / 360 m (estimated)
Variation: 02W (1990)
From city: 5 miles E of CARROLLTON, GA
Time zone: UTC -5 (UTC -4 during Daylight Saving Time)
Zip code: 30116

Airport Operations

Airport use: Private use. Permission required prior to landing
Activation date: 03/1992
Control tower: no
ARTCC: ATLANTA CENTER
FSS: MACON FLIGHT SERVICE STATION
Attendance: IREG
Wind indicator: yes
Segmented circle: no

Airport Communications

WX AWOS-3 at CTJ (8 nm NW): 118.175 (770-214-9667)
WX AWOS-3PT at CCO (20 nm SE): 118.975 (770-254-1617)

Nearby radio navigation aids

VOR radial/distance  VOR name  Freq  Var
ATLr269/28.6ATLANTA VORTAC116.9005W
LGCr017/33.3LAGRANGE VORTAC115.6001E
RMGr170/35.6ROME VORTAC115.4001E
PDKr248/39.4PEACHTREE VOR/DME116.6005W

 
NDB name  Hdg/Dist  Freq  Var  ID
CARROLLTON088/6.427804WGPQ --. .--. --.-
COWETA COUNTY326/24.123403WEQQ . --.- --.-
PECAT308/30.731605WFFC ..-. ..-. -.-.
CARTERSVILLE196/38.230804WEVZ . ...- --..

Airport Services

Runway Information

Runway 17/35

Dimensions: 2000 x 60 ft. / 610 x 18 m
Surface: turf
RUNWAY 17  RUNWAY 35
Traffic pattern: leftleft

Airport Ownership and Management from official FAA records

Ownership: Privately-owned
Owner: BART STONE
1451 HORSLEY MILL RD
CARROLLTON, GA 30117
Phone (770) 617-4566

Airport Operational Statistics

Aircraft based on the field: 1
Single engine airplanes: 1
    

Instrument Procedures

There are no published instrument procedures at 8GA8.

Some nearby airports with instrument procedures:

KCTJ - West Georgia Regional Airport-O V Gray Field (8 nm NW)
KCCO - Newnan Coweta County Airport (20 nm SE)
KPUJ - Paulding Northwest Atlanta Airport (20 nm N)
KFFC - Atlanta Regional Airport-Falcon Field (25 nm SE)
KFTY - Fulton County Airport-Brown Field (27 nm NE)
 
Loc | Ops | Rwys | IFR | FBO | Links
Com | Nav | Svcs | Stats | Notes


 
Area around 8GA8 (Falcons Aerie Airport)
 
Road maps at: MapQuest Bing Google
 
Aerial photo
No photo
 
Sectional chart

 
Airport distance calculator
Flying to Falcons Aerie Airport? Find the distance to fly.

From to 8GA8

Sunrise and sunset
Times for 20-Jan-2018
 Local
(UTC-5)
 Zulu
(UTC)
Morning civil twilight07:1712:17
Sunrise07:4412:44
Sunset17:5822:58
Evening civil twilight18:2523:25

Current date and time
Zulu (UTC)  20-Jan-2018 22:35:47
Local (UTC-5)  20-Jan-2018 17:35:47
 
METAR
KCTJ 
8nm NW 
202215Z AUTO 00000KT 10SM CLR 15/04 A3025 RMK AO2 T01510035
KCCO 
20nm SE 
202215Z AUTO 21005KT 10SM CLR 16/02 A3023 RMK AO2 T01550015
TAF
KFTY 
27nm NE 
201724Z 2018/2118 28006KT P6SM BKN035 FM201900 27006KT P6SM FEW035 FM210000 00000KT P6SM SCT250 FM211100 VRB03KT 6SM BR SCT250 FM211600 16004KT P6SM SCT250
KATL 
28nm E 
202130Z 2022/2124 30007KT P6SM FEW200 FM210000 27003KT P6SM FEW200 FM211200 VRB03KT P6SM FEW250 FM211800 16005KT P6SM FEW060 SCT250
KMGE 
32nm NE 
202200Z 2022/2204 30006KT 9999 FEW030 QNH3018INS BECMG 2117/2118 12006KT 9999 FEW040 QNH3018INS TX17/2121Z TN02/2112Z
KRYY 
33nm NE 
201724Z 2018/2118 30006KT P6SM BKN035 FM201900 29005KT P6SM SCT035 FM210000 00000KT P6SM SCT250 FM211100 VRB03KT 6SM BR SCT250 FM211600 17004KT P6SM SCT250
NOTAMs
Click for the latest NOTAMs
NOTAMs are issued by the DoD/FAA and will open in a separate window not controlled by AirNav.

 

 
 

Would you like to see your business listed on this page?

 If your business provides an interesting product or service to pilots, flight crews, aircraft, or users of the Falcons Aerie Airport, you should consider listing it here.  To start the listing process, click on the button below
 
Add a business
 

Other Pages about Falcons Aerie Airport

Update a link
 
Copyright © AirNav, LLC. All rights reserved. Privacy Policy  Contact